This is the latest recevied weather packets stored in our database for station/object N5COP-13. If no packets are shown the sender has not sent any weather packets the latest 10 day(s).
| Time | Temp. | Humidity | Pressure | Rain* | Wind** | Luminosity | Snow |
|---|---|---|---|---|---|---|---|
| 1777424722 | 26.11° C | 9% | 1012.6 hPa | 0 mm | - | 26 W/m² | - |
| 1777424419 | 26.67° C | 9% | 1012.5 hPa | 0 mm | - | 27 W/m² | - |
| 1777424115 | 26.67° C | 9% | 1012.5 hPa | 0 mm | - | 37 W/m² | - |
| 1777423812 | 27.22° C | 9% | 1012.4 hPa | 0 mm | - | 44 W/m² | - |
| 1777423509 | 27.22° C | 9% | 1012.3 hPa | 0 mm | - | 53 W/m² | - |
| 1777423203 | 27.78° C | 9% | 1012.4 hPa | 0 mm | - | 60 W/m² | - |
| 1777422902 | 27.78° C | 8% | 1012.3 hPa | 0 mm | - | 70 W/m² | - |
| 1777422598 | 27.78° C | 8% | 1012.2 hPa | 0 mm | - | 80 W/m² | - |
| 1777422295 | 27.78° C | 9% | 1012.3 hPa | 0 mm | - | 90 W/m² | - |
| 1777421994 | 27.78° C | 9% | 1012.3 hPa | 0 mm | - | 100 W/m² | - |
| 1777421683 | 27.78° C | 9% | 1012.2 hPa | 0 mm | - | 113 W/m² | - |
| 1777421378 | 27.78° C | 8% | 1012.2 hPa | 0 mm | - | 128 W/m² | - |
| 1777421075 | 28.33° C | 8% | 1012.2 hPa | 0 mm | - | 142 W/m² | - |
| 1777420772 | 28.33° C | 8% | 1012.2 hPa | 0 mm | - | 159 W/m² | - |
| 1777420468 | 28.33° C | 8% | 1012.1 hPa | 0 mm | - | 174 W/m² | - |
| 1777420165 | 27.78° C | 9% | 1012.1 hPa | 0 mm | - | 187 W/m² | - |
| 1777419860 | 28.33° C | 8% | 1012.1 hPa | 0 mm | - | 202 W/m² | - |
| 1777419558 | 28.33° C | 8% | 1012.1 hPa | 0 mm | - | 215 W/m² | - |
| 1777419252 | 28.33° C | 8% | 1012.1 hPa | 0 mm | - | 237 W/m² | - |
| 1777418949 | 28.33° C | 8% | 1012.1 hPa | 0 mm | - | 248 W/m² | - |
| 1777418644 | 27.78° C | 9% | 1012.1 hPa | 0 mm | - | 263 W/m² | - |
| 1777418341 | 28.33° C | 9% | 1012 hPa | 0 mm | - | 277 W/m² | - |
| 1777418036 | 28.33° C | 9% | 1012.2 hPa | 0 mm | - | 293 W/m² | - |
| 1777417732 | 28.33° C | 9% | 1012 hPa | 0 mm | - | 310 W/m² | - |
| 1777417428 | 28.33° C | 9% | 1012.2 hPa | 0 mm | - | 331 W/m² | - |
* Rain latest hour (hover to see other rain measurements)
** Current wind speed in m/s (hover to see current wind gust speed)